Flag for Antigua and Barbuda Weather past 2 weeks in Saint John's, Antigua and Barbuda

Now
82 °F

Passing clouds.


Feels Like: 86 °F
Forecast: 77 / 83 °F
Wind: 14 mph from East

Location: Vc Bird International Antigua Airport

Current Time: Apr 18, 2015 at 10:32:11 AM

Latest Report: Apr 18, 2015 at 10:00 AM


Visibility: N/A

Pressure: 30.07 "Hg

Humidity: 66%

Dew point: 70 °F

Location of Saint John'sLocation

Historic Weather in Saint John's — Graph

°F

Saint John's temperature yesterday

Maximum temperature yesterday: 82 °F (at 10:00 AM)
Minimum temperature yesterday: 77 °F (at 12:00 AM)
Average temperature yesterday: 80 °F

Past Weeks' High & Low Weather Summary

 TemperatureHumidityPressure
High84 °F (Apr 10, 2:00 PM)89% (Apr 6, 1:00 AM)30.12 "Hg (Apr 6, 1:00 AM)
Low72 °F (Apr 4, 12:00 AM)58% (Apr 3, 10:00 AM)29.89 "Hg (Apr 5, 3:00 AM)
Average79 °F73%30.02 "Hg
* Reported Apr 3 9:00 AM — Apr 18 9:00 AM, Saint John's, Weather by CustomWeather, © 2015

Note: Actual official high and low records may vary slightly from our data, if they occured in-between our weather recording intervals... More about our weather records

Advertising

Saint John's weather history for previous 24 hours

 ConditionsComfort  
Time TempWeatherWind HumidityBarometerVisibility
9:00 AM
Sat, Apr 18
82 °FPassing clouds.13 mph70%30.07 "HgN/A
8:00 AM81 °FPassing clouds.12 mph74%30.07 "HgN/A
7:00 AM79 °FPartly sunny.12 mph79%30.04 "HgN/A
6:00 AM77 °FScattered clouds.10 mph83%30.01 "HgN/A
5:00 AM79 °FPassing clouds.12 mph74%30.01 "HgN/A
4:00 AM79 °FPassing clouds.10 mph79%30.01 "HgN/A
3:00 AM77 °FPassing clouds.9 mph79%30.01 "HgN/A
2:00 AM77 °FPassing clouds.10 mph79%30.01 "HgN/A
1:00 AM77 °FPassing clouds.10 mph79%30.04 "HgN/A
12:00 AM79 °FPassing clouds.12 mph74%30.04 "HgN/A
11:00 PM
Fri, Apr 17
79 °FPassing clouds.10 mph74%30.07 "HgN/A
10:00 PM79 °FPassing clouds.12 mph74%30.04 "HgN/A
9:00 PM79 °FPassing clouds.10 mph74%30.04 "HgN/A
8:00 PM79 °FPassing clouds.12 mph74%30.04 "HgN/A
7:00 PM79 °FPassing clouds.12 mph74%30.01 "HgN/A
6:00 PM79 °FPassing clouds.12 mph74%30.01 "HgN/A
5:00 PM81 °FPassing clouds.12 mph70%30.01 "HgN/A
4:00 PM82 °FPassing clouds.12 mph66%30.01 "HgN/A
3:00 PM82 °FPassing clouds.13 mph66%30.01 "HgN/A
2:00 PM82 °FPassing clouds.13 mph66%30.01 "HgN/A
1:00 PM82 °FPassing clouds.15 mph66%30.04 "HgN/A
12:00 PM82 °FScattered clouds.16 mph66%30.04 "HgN/A
11:00 AM82 °FScattered clouds.15 mph66%30.07 "HgN/A
10:00 AM82 °FScattered clouds.13 mph66%30.07 "HgN/A
Weather by CustomWeather, © 2015

See weather overviewHow to use our weather pages